• In Belarus
  • List of Countries
  • For 7 days
  • Water Temperature
  • Satellite Maps
  • Weather Map
  • Weather Widgets
  • user-avatar
    Login

    Hourly Weather Perth

    Today, 15 July, Monday

    Time Temperature Precipitation Wind Pressure Humidity
    00:00 +12°C° 0 mm 4 mps 772 mmHg 65%
    01:00 +12°C° 0 mm 4 mps 771 mmHg 65%
    02:00 +11°C° 0 mm 3 mps 771 mmHg 65%
    03:00 +11°C° 0 mm 4 mps 771 mmHg 66%
    04:00 +11°C° 0 mm 4 mps 771 mmHg 66%
    05:00 +11°C° 0 mm 4 mps 771 mmHg 67%
    06:00 +11°C° 0 mm 4 mps 771 mmHg 67%
    07:00 +11°C° 0 mm 4 mps 771 mmHg 68%
    08:00 +11°C° 0 mm 4 mps 772 mmHg 66%
    09:00 +12°C° 0 mm 4 mps 772 mmHg 62%
    10:00 +14°C° 0 mm 5 mps 772 mmHg 58%
    11:00 +16°C° 0 mm 5 mps 772 mmHg 54%
    12:00 +18°C° 0 mm 4 mps 771 mmHg 52%
    13:00 +19°C° 0 mm 4 mps 770 mmHg 50%
    14:00 +20°C° 0 mm 2 mps 769 mmHg 49%
    15:00 +19°C° 0 mm 2 mps 769 mmHg 53%
    16:00 +18°C° 0 mm 2 mps 769 mmHg 57%
    17:00 +18°C° 0 mm 2 mps 769 mmHg 61%
    18:00 +17°C° 0 mm 2 mps 770 mmHg 63%
    19:00 +16°C° 0 mm 2 mps 770 mmHg 66%
    20:00 +15°C° 0 mm 2 mps 770 mmHg 66%
    21:00 +14°C° 0 mm 2 mps 770 mmHg 66%
    22:00 +14°C° 0 mm 2 mps 770 mmHg 66%
    23:00 +13°C° 0 mm 2 mps 770 mmHg 66%

    Tomorrow, 16 July, Tuesday

    Time Temperature Precipitation Wind Pressure Humidity
    00:00 +13°C° 0 mm 2 mps 770 mmHg 67%
    01:00 +13°C° 0 mm 2 mps 770 mmHg 68%
    02:00 +12°C° 0 mm 3 mps 770 mmHg 70%
    03:00 +12°C° 0 mm 2 mps 770 mmHg 69%
    04:00 +12°C° 0 mm 2 mps 770 mmHg 69%
    05:00 +12°C° 0 mm 2 mps 770 mmHg 68%
    06:00 +12°C° 0 mm 2 mps 770 mmHg 67%
    07:00 +12°C° 0 mm 2 mps 770 mmHg 66%
    08:00 +12°C° 0 mm 2 mps 770 mmHg 65%
    09:00 +14°C° 0 mm 2 mps 770 mmHg 60%
    10:00 +16°C° 0 mm 2 mps 770 mmHg 55%
    11:00 +18°C° 0 mm 2 mps 770 mmHg 50%
    12:00 +18°C° 0 mm 2 mps 769 mmHg 48%
    13:00 +19°C° 0 mm 2 mps 769 mmHg 45%
    14:00 +20°C° 0 mm 2 mps 768 mmHg 43%
    15:00 +20°C° 0 mm 1 mps 768 mmHg 48%
    16:00 +19°C° 0 mm 1 mps 768 mmHg 52%
    17:00 +18°C° 0 mm 1 mps 768 mmHg 56%
    18:00 +16°C° 0 mm 1 mps 768 mmHg 59%
    19:00 +16°C° 0 mm 1 mps 768 mmHg 61%
    20:00 +15°C° 0 mm 1 mps 768 mmHg 63%
    21:00 +14°C° 0 mm 1 mps 768 mmHg 64%
    22:00 +14°C° 0 mm 1 mps 768 mmHg 65%
    23:00 +14°C° 0 mm 2 mps 768 mmHg 66%

    Day after tomorrow, 17 July, Wednesday

    Time Temperature Precipitation Wind Pressure Humidity
    00:00 +13°C° 0 mm 2 mps 768 mmHg 66%
    01:00 +13°C° 0 mm 2 mps 767 mmHg 65%
    02:00 +13°C° 0 mm 2 mps 767 mmHg 65%
    03:00 +13°C° 0 mm 2 mps 767 mmHg 65%
    04:00 +12°C° 0 mm 2 mps 767 mmHg 65%
    05:00 +12°C° 0 mm 2 mps 767 mmHg 65%
    06:00 +12°C° 0 mm 2 mps 767 mmHg 65%
    07:00 +12°C° 0 mm 2 mps 766 mmHg 65%
    08:00 +12°C° 0 mm 2 mps 766 mmHg 65%
    09:00 +13°C° 0 mm 3 mps 766 mmHg 60%
    10:00 +16°C° 0 mm 3 mps 766 mmHg 55%
    11:00 +18°C° 0 mm 3 mps 766 mmHg 50%
    12:00 +18°C° 0 mm 3 mps 765 mmHg 50%
    13:00 +19°C° 0 mm 4 mps 765 mmHg 49%
    14:00 +20°C° 0 mm 4 mps 764 mmHg 48%
    15:00 +19°C° 0 mm 4 mps 764 mmHg 54%
    16:00 +18°C° 0 mm 3 mps 764 mmHg 61%
    17:00 +18°C° 0 mm 3 mps 764 mmHg 67%
    18:00 +17°C° 0 mm 2 mps 764 mmHg 71%
    19:00 +16°C° 0 mm 2 mps 764 mmHg 76%
    20:00 +15°C° 0 mm 2 mps 765 mmHg 80%
    21:00 +15°C° 0 mm 1 mps 765 mmHg 81%
    22:00 +15°C° 0 mm 1 mps 765 mmHg 81%
    23:00 +15°C° 0 mm 1 mps 765 mmHg 82%

    18 July, Thursday

    Time Temperature Precipitation Wind Pressure Humidity
    00:00 +15°C° 0 mm 1 mps 764 mmHg 83%
    01:00 +14°C° 0 mm 1 mps 764 mmHg 84%
    02:00 +14°C° 0 mm 1 mps 764 mmHg 84%
    03:00 +14°C° 0.1 mm 1 mps 764 mmHg 85%
    04:00 +14°C° 0.1 mm 1 mps 764 mmHg 85%
    05:00 +14°C° 0.1 mm 2 mps 764 mmHg 86%
    06:00 +14°C° 0.2 mm 1 mps 764 mmHg 86%
    07:00 +14°C° 0.2 mm 1 mps 764 mmHg 86%
    08:00 +14°C° 0.2 mm 1 mps 764 mmHg 86%
    09:00 +15°C° 0.1 mm 1 mps 764 mmHg 83%
    10:00 +16°C° 0.1 mm 1 mps 764 mmHg 79%
    11:00 +16°C° 0.1 mm 1 mps 764 mmHg 76%
    12:00 +18°C° 0 mm 1 mps 763 mmHg 74%
    13:00 +18°C° 0 mm 2 mps 762 mmHg 72%
    14:00 +19°C° 0 mm 2 mps 761 mmHg 69%
    15:00 +19°C° 0.1 mm 2 mps 761 mmHg 72%
    16:00 +18°C° 0.1 mm 2 mps 761 mmHg 74%
    17:00 +18°C° 0.1 mm 2 mps 761 mmHg 76%
    18:00 +17°C° 0 mm 2 mps 761 mmHg 79%
    19:00 +17°C° 0 mm 2 mps 761 mmHg 82%
    20:00 +16°C° 0 mm 2 mps 761 mmHg 84%
    21:00 +15°C° 0 mm 2 mps 761 mmHg 85%
    22:00 +14°C° 0 mm 3 mps 760 mmHg 86%
    23:00 +14°C° 0 mm 3 mps 760 mmHg 86%

    19 July, Friday

    Time Temperature Precipitation Wind Pressure Humidity
    00:00 +13°C° 0 mm 3 mps 760 mmHg 85%
    01:00 +13°C° 0 mm 3 mps 759 mmHg 85%
    02:00 +13°C° 0 mm 4 mps 759 mmHg 84%
    03:00 +13°C° 0 mm 4 mps 758 mmHg 84%
    04:00 +12°C° 0 mm 4 mps 757 mmHg 84%
    05:00 +12°C° 0 mm 4 mps 757 mmHg 84%
    06:00 +13°C° 0.2 mm 5 mps 756 mmHg 84%
    07:00 +13°C° 0.2 mm 5 mps 756 mmHg 84%
    08:00 +13°C° 0.2 mm 5 mps 756 mmHg 85%
    09:00 +14°C° 0.5 mm 6 mps 755 mmHg 81%
    10:00 +16°C° 0.5 mm 8 mps 755 mmHg 78%
    11:00 +17°C° 0.5 mm 9 mps 754 mmHg 74%
    12:00 +17°C° 1.1 mm 9 mps 753 mmHg 76%
    13:00 +16°C° 1.1 mm 10 mps 752 mmHg 77%
    14:00 +16°C° 1.1 mm 10 mps 752 mmHg 79%
    15:00 +14°C° 0.6 mm 10 mps 752 mmHg 79%
    16:00 +13°C° 0.6 mm 10 mps 753 mmHg 79%
    17:00 +12°C° 0.6 mm 10 mps 753 mmHg 80%
    18:00 +12°C° 0.8 mm 10 mps 754 mmHg 76%
    19:00 +12°C° 0.8 mm 9 mps 755 mmHg 73%
    20:00 +12°C° 0.8 mm 9 mps 756 mmHg 69%
    21:00 +11°C° 0.8 mm 8 mps 757 mmHg 70%
    22:00 +11°C° 0.8 mm 8 mps 757 mmHg 71%
    23:00 +11°C° 0.8 mm 7 mps 758 mmHg 72%

    20 July, Saturday

    Time Temperature Precipitation Wind Pressure Humidity
    00:00 +11°C° 0.3 mm 6 mps 758 mmHg 72%
    01:00 +10°C° 0.3 mm 5 mps 759 mmHg 72%
    02:00 +10°C° 0.3 mm 5 mps 759 mmHg 73%
    03:00 +11°C° 0.1 mm 4 mps 760 mmHg 73%
    04:00 +11°C° 0.1 mm 4 mps 760 mmHg 74%
    05:00 +11°C° 0.1 mm 3 mps 760 mmHg 75%
    06:00 +11°C° 0.1 mm 3 mps 761 mmHg 74%
    07:00 +11°C° 0.1 mm 3 mps 762 mmHg 74%
    08:00 +12°C° 0.1 mm 2 mps 762 mmHg 74%
    09:00 +12°C° 0 mm 3 mps 763 mmHg 69%
    10:00 +14°C° 0 mm 3 mps 763 mmHg 64%
    11:00 +15°C° 0 mm 4 mps 764 mmHg 58%
    12:00 +15°C° 0 mm 4 mps 763 mmHg 59%
    13:00 +15°C° 0 mm 5 mps 763 mmHg 60%
    14:00 +15°C° 0 mm 5 mps 763 mmHg 61%
    15:00 +15°C° 0 mm 4 mps 763 mmHg 64%
    16:00 +14°C° 0 mm 4 mps 763 mmHg 66%
    17:00 +14°C° 0 mm 3 mps 764 mmHg 68%
    18:00 +14°C° 0 mm 3 mps 764 mmHg 70%
    19:00 +13°C° 0 mm 3 mps 764 mmHg 72%
    20:00 +13°C° 0 mm 3 mps 765 mmHg 74%
    21:00 +13°C° 0 mm 3 mps 765 mmHg 75%
    22:00 +13°C° 0 mm 3 mps 765 mmHg 77%
    23:00 +13°C° 0 mm 3 mps 764 mmHg 78%
    Show more